[[{"header":{"parameterUnit":"m.s-1","parameterCategory":1,"la1":30.2991,"la2":30.254,"lo1":-89.0895,"lo2":-89.0444,"dy":0.0017,"dx":0.0017,"nx":28,"ny":28,"refTime":"2023-08-25T21:00:00:Z","depth":0,"parameterNumber":2,"parameterNumberName":"U-component_of_WINDS"},"data":[0,0,0,0,0,0,0,0,0,0,0,0,0,0,0,0,0,0,0,0,0,0,0,0,0,0,0,0,0,0,0,0,0,0,0,0,0,0,0,0,0,0,0,0,0,0,0,0,0,0,0,0,0,0,0,0,0,0,-1.6533,-1.6532,0,-1.6443,-1.6442,-1.6441,-1.6348,-1.6347,-1.6346,-1.6344,-1.6252,-1.6251,-1.625,0,0,0,0,0,0,0,0,0,0,0,0,0,-1.6624,-1.6623,-1.6533,-1.6532,-1.653,-1.6443,-1.6442,-1.644,-1.6348,-1.6347,-1.6345,-1.6344,-1.6253,-1.6251,-1.6249,0,0,0,0,0,0,0,0,0,0,0,0,0,-1.6565,-1.6623,-1.6533,-1.6474,-1.6468,-1.6443,-1.6442,-1.644,-1.6349,-1.6347,-1.6345,-1.6343,-1.6253,-1.6251,-1.6249,-1.6275,0,0,-1.6243,-1.6243,0,0,0,0,0,0,0,0,-1.6568,-1.6561,-1.6484,-1.6478,-1.6471,-1.6405,-1.644,-1.6385,-1.6349,-1.6394,-1.6344,-1.6342,-1.6304,-1.6298,-1.6285,-1.6271,-1.6267,-1.6243,-1.6242,-1.6241,-1.6241,0,0,0,0,0,0,0,-1.6572,-1.6565,-1.6497,-1.6483,-1.6475,-1.6452,-1.6441,-1.6429,-1.6361,-1.639,-1.6383,-1.6374,-1.6301,-1.6288,-1.6283,-1.6266,-1.6243,-1.6242,-1.624,-1.624,-1.6269,-1.6271,0,0,0,0,0,0,-1.6585,-1.6569,-1.65,-1.6494,-1.6516,-1.6452,-1.644,-1.6428,-1.6361,-1.6349,-1.6375,-1.637,-1.6292,-1.6285,-1.6279,-1.6306,-1.6241,-1.6239,-1.6238,-1.6267,-1.6269,-1.6271,0,0,0,0,0,0,-1.6588,-1.658,-1.6504,-1.653,-1.6518,-1.6452,-1.6439,-1.6427,-1.6414,-1.635,-1.6337,-1.6375,-1.629,-1.6282,-1.6277,-1.6301,-1.6239,-1.6237,-1.6265,-1.6268,-1.627,-1.6359,0,0,0,0,0,0,-1.6591,-1.6582,-1.6591,-1.653,-1.6517,-1.6504,-1.6441,-1.6427,-1.6411,-1.6403,-1.6346,-1.6334,-1.6288,-1.6281,-1.6275,-1.6297,-1.6235,-1.6262,-1.6266,-1.6269,-1.6354,-1.6365,-1.6374,0,0,0,0,0,-1.6594,-1.6619,-1.6592,-1.6584,-1.6527,-1.6505,-1.6497,-1.6443,-1.6413,-1.6422,-1.6381,-1.6336,-1.6299,-1.6281,-1.6274,-1.6296,-1.626,-1.6265,-1.6269,-1.6349,-1.6363,-1.6374,0,0,0,0,0,0,-1.6684,-1.661,-1.6579,-1.6585,-1.6552,-1.649,-1.6499,-1.6459,-1.6434,-1.6427,-1.6361,-1.6349,-1.6352,-1.6323,-1.6304,-1.6318,-1.6273,-1.6277,-1.6337,-1.6349,-1.6359,-1.6366,-1.6234,0,0,0,0,0,-1.6705,-1.6693,-1.6629,-1.6641,-1.6626,-1.6566,-1.6554,-1.6515,-1.6478,-1.6464,-1.6422,-1.6388,-1.6368,-1.6357,-1.6335,-1.6349,-1.6335,-1.6361,-1.6371,-1.6379,-1.6383,-1.6389,-1.6399,-1.6285,-1.6285,-1.6285,0,0,-1.6747,-1.6705,-1.6702,-1.6658,-1.6627,-1.6617,-1.6554,-1.6546,-1.6537,-1.6462,-1.6455,-1.6424,-1.6381,-1.6386,-1.6386,-1.6362,-1.6412,-1.6385,-1.6392,-1.6391,-1.6394,-1.6405,-1.6415,-1.6288,-1.6288,-1.6287,0,0,-1.6819,-1.6786,-1.6792,-1.6763,-1.6719,-1.6678,-1.668,-1.6623,-1.66,-1.6592,-1.6536,-1.6524,-1.6492,-1.6464,-1.6446,-1.6508,-1.6466,-1.6502,-1.6556,-1.6562,-1.6571,-1.6578,-1.6601,-1.661,-1.6506,-1.6506,-1.6506,0,-1.6877,-1.6859,-1.6801,-1.6795,-1.6778,-1.671,-1.6716,-1.669,-1.6641,-1.663,-1.6604,-1.6563,-1.6529,-1.6527,-1.6542,-1.6529,-1.6529,-1.6509,-1.6574,-1.6581,-1.6588,-1.6608,-1.6617,-1.6511,-1.6511,-1.651,-1.651,0,-1.6933,-1.6922,-1.6932,-1.6886,-1.687,-1.687,-1.6812,-1.6802,-1.6765,-1.6728,-1.6721,-1.6678,-1.6647,-1.6643,-1.6607,-1.6636,-1.6623,-1.6586,-1.6541,-1.6604,-1.6623,-1.663,-1.6518,-1.6516,-1.6515,-1.6514,0,0,-1.706,-1.6982,-1.6987,-1.6965,-1.6911,-1.6901,-1.6898,-1.6868,-1.6861,-1.6829,-1.6826,-1.68,-1.6766,-1.6745,-1.6705,-1.671,-1.6763,-1.6673,-1.6671,-1.6692,-1.6793,-1.6821,-1.6832,-1.6734,-1.6736,-1.6736,-1.6797,0,-1.7122,-1.7114,-1.7062,-1.7069,-1.7057,-1.6992,-1.699,-1.6957,-1.6922,-1.6907,-1.6868,-1.6851,-1.6807,-1.6794,-1.6797,-1.6756,-1.6782,-1.6751,-1.6731,-1.6731,-1.6744,-1.6841,-1.6871,-1.693,-1.6804,-1.6805,-1.6806,0,-1.7195,-1.7168,-1.7174,-1.712,-1.7113,-1.7112,-1.7081,-1.7067,-1.7028,-1.7002,-1.6979,-1.6934,-1.6927,-1.6884,-1.6875,-1.6855,-1.6843,-1.6822,-1.6823,-1.6819,-1.6773,-1.6841,-1.6947,-1.6957,-1.6816,-1.6815,-1.6815,0,-1.7288,-1.7253,-1.7252,-1.7235,-1.7172,-1.7173,-1.7147,-1.7105,-1.7091,-1.7063,-1.7053,-1.7025,-1.7009,-1.6989,-1.6937,-1.691,-1.6934,-1.6886,-1.6912,-1.6914,-1.6921,-1.6921,-1.7028,-1.6913,-1.6913,-1.6912,-1.6912,0,-1.7364,-1.737,-1.7293,-1.7292,-1.7298,-1.7237,-1.7244,-1.7211,-1.7175,-1.7167,-1.7109,-1.7103,-1.7034,-1.7021,-1.698,-1.6979,-1.6972,-1.6951,-1.694,-1.6957,-1.696,-1.6949,-1.6944,-1.6915,-1.6914,-1.6914,-1.6913,0,-1.7469,-1.7417,-1.7412,-1.7352,-1.7337,-1.7344,-1.7293,-1.729,-1.7252,-1.7243,-1.7237,-1.7177,-1.7157,-1.7103,-1.707,-1.7043,-1.7053,-1.7033,-1.7067,-1.706,-1.709,-1.7089,-1.7194,-1.7205,-1.7083,-1.7084,-1.7085,0,-1.7521,-1.7525,-1.7466,-1.7456,-1.7433,-1.7418,-1.7403,-1.7344,-1.733,-1.7286,-1.7289,-1.7265,-1.7242,-1.7214,-1.7168,-1.7142,-1.7121,-1.7159,-1.7116,-1.7133,-1.7122,-1.7123,-1.7123,-1.7169,-1.7171,-1.7172,-1.7173,0,-1.762,-1.7594,-1.7575,-1.7547,-1.753,-1.7505,-1.7477,-1.7472,-1.7405,-1.7393,-1.7373,-1.7356,-1.7322,-1.7299,-1.7266,-1.7239,-1.7195,-1.7187,-1.7192,-1.7209,-1.7229,-1.722,-1.7094,-1.7185,-1.7184,-1.7183,-1.7182,-1.7182,-1.7701,-1.7701,-1.766,-1.764,-1.7613,-1.7587,-1.7582,-1.7543,-1.7525,-1.7493,-1.7459,-1.7443,-1.7403,-1.7354,-1.733,-1.7316,-1.7293,-1.73,-1.7302,-1.7305,-1.7313,-1.7231,-1.731,-1.7309,-1.7309,-1.7309,-1.7308,0,-1.7797,-1.7768,-1.775,-1.7712,-1.7697,-1.7657,-1.7624,-1.7614,-1.76,-1.7567,-1.7546,-1.7523,-1.7501,-1.7452,-1.7425,-1.7424,-1.7403,-1.7419,-1.7419,-1.7413,-1.7335,-1.7333,-1.7436,-1.7436,-1.7436,-1.7436,-1.7436,-1.7436,-1.7846,-1.7845,-1.7814,-1.7799,-1.7768,-1.7752,-1.7737,-1.7713,-1.7687,-1.7664,-1.7645,-1.7613,-1.7574,-1.7544,-1.7522,-1.7508,-1.7501,-1.7523,-1.7504,-1.7431,-1.7419,-1.7407,-1.7406,-1.7522,-1.7522,-1.7583,-1.7584,-1.7584]},{"header":{"parameterUnit":"m.s-1","parameterCategory":1,"la1":30.2991,"la2":30.254,"lo1":-89.0895,"lo2":-89.0444,"dy":0.0017,"dx":0.0017,"nx":28,"ny":28,"refTime":"2023-08-25T21:00:00:Z","depth":0,"parameterNumber":3,"parameterNumberName":"V-component_of_WINDS"},"data":[0,0,0,0,0,0,0,0,0,0,0,0,0,0,0,0,0,0,0,0,0,0,0,0,0,0,0,0,0,0,0,0,0,0,0,0,0,0,0,0,0,0,0,0,0,0,0,0,0,0,0,0,0,0,0,0,0,0,-1.1616,-1.1616,0,-1.1664,-1.1665,-1.1665,-1.1646,-1.1645,-1.1644,-1.1643,-1.1693,-1.1695,-1.1697,0,0,0,0,0,0,0,0,0,0,0,0,0,-1.1507,-1.1509,-1.1616,-1.1616,-1.1617,-1.1664,-1.1665,-1.1665,-1.1646,-1.1645,-1.1644,-1.1642,-1.1692,-1.1695,-1.1698,0,0,0,0,0,0,0,0,0,0,0,0,0,-1.1555,-1.151,-1.1616,-1.1613,-1.1613,-1.1664,-1.1665,-1.1666,-1.1647,-1.1645,-1.1643,-1.1642,-1.1691,-1.1694,-1.1698,-1.1754,0,0,-1.1709,-1.171,0,0,0,0,0,0,0,0,-1.1552,-1.1559,-1.1613,-1.1613,-1.1614,-1.1647,-1.1645,-1.1695,-1.1647,-1.1634,-1.1643,-1.1641,-1.1679,-1.1683,-1.1696,-1.1756,-1.1758,-1.1709,-1.1711,-1.1713,-1.1714,0,0,0,0,0,0,0,-1.1549,-1.1556,-1.1635,-1.1614,-1.1614,-1.161,-1.1614,-1.1654,-1.1665,-1.1635,-1.1634,-1.164,-1.1679,-1.1693,-1.1697,-1.1759,-1.1709,-1.1712,-1.1714,-1.1716,-1.1868,-1.187,0,0,0,0,0,0,-1.1545,-1.1554,-1.1633,-1.1636,-1.1578,-1.1613,-1.1618,-1.1638,-1.1665,-1.1667,-1.1641,-1.1639,-1.1688,-1.1693,-1.1699,-1.1767,-1.1713,-1.1716,-1.1718,-1.1866,-1.1868,-1.187,0,0,0,0,0,0,-1.1543,-1.1552,-1.1631,-1.1595,-1.1604,-1.1617,-1.1639,-1.164,-1.1654,-1.167,-1.1671,-1.1653,-1.1687,-1.1694,-1.174,-1.1768,-1.1718,-1.1721,-1.1864,-1.1867,-1.1869,-1.1903,0,0,0,0,0,0,-1.154,-1.1552,-1.1573,-1.1595,-1.1606,-1.1672,-1.1641,-1.1642,-1.166,-1.1658,-1.1682,-1.1684,-1.1686,-1.1735,-1.1744,-1.1772,-1.1724,-1.1861,-1.1865,-1.1868,-1.1899,-1.1907,-1.1913,0,0,0,0,0,-1.1536,-1.1581,-1.1574,-1.1584,-1.1633,-1.1674,-1.168,-1.1681,-1.1663,-1.1684,-1.1694,-1.1683,-1.1763,-1.174,-1.175,-1.178,-1.1859,-1.1864,-1.1868,-1.1896,-1.1905,-1.1912,0,0,0,0,0,0,-1.1561,-1.1583,-1.1577,-1.163,-1.165,-1.1671,-1.1698,-1.169,-1.1717,-1.1713,-1.1713,-1.1719,-1.1767,-1.1778,-1.1751,-1.1835,-1.1809,-1.1815,-1.1827,-1.1835,-1.1842,-1.1839,-1.1727,0,0,0,0,0,-1.1573,-1.1604,-1.1622,-1.1667,-1.1677,-1.1686,-1.1703,-1.1703,-1.1724,-1.1732,-1.1745,-1.1766,-1.1796,-1.1816,-1.1844,-1.19,-1.1906,-1.1925,-1.1932,-1.1937,-1.1943,-1.1974,-1.1984,-1.1884,-1.1884,-1.1884,0,0,-1.1598,-1.1614,-1.1633,-1.1672,-1.1688,-1.172,-1.1693,-1.1728,-1.1753,-1.1737,-1.1783,-1.1793,-1.1816,-1.1868,-1.1891,-1.1878,-1.1972,-1.1943,-1.1947,-1.195,-1.198,-1.1989,-1.1998,-1.1887,-1.1887,-1.1886,0,0,-1.166,-1.1675,-1.1714,-1.173,-1.1754,-1.176,-1.1769,-1.1791,-1.1797,-1.1842,-1.1832,-1.186,-1.1911,-1.1929,-1.1944,-1.2012,-1.2003,-1.2021,-1.2057,-1.2087,-1.2095,-1.2102,-1.2127,-1.2136,-1.2027,-1.2027,-1.2027,0,-1.1688,-1.1736,-1.1736,-1.1772,-1.179,-1.1777,-1.1817,-1.1833,-1.1865,-1.1878,-1.1862,-1.1927,-1.1942,-1.1997,-1.2014,-1.2026,-1.2038,-1.2019,-1.2093,-1.21,-1.2107,-1.2131,-1.2141,-1.2029,-1.2029,-1.2029,-1.2028,0,-1.177,-1.1803,-1.1832,-1.1864,-1.1885,-1.1923,-1.1928,-1.1949,-1.1946,-1.1953,-1.1999,-1.2016,-1.2048,-1.2061,-1.2058,-1.2116,-1.2108,-1.2093,-1.2066,-1.2119,-1.2141,-1.2151,-1.2032,-1.2031,-1.2031,-1.203,0,0,-1.185,-1.1881,-1.1892,-1.1906,-1.1931,-1.1957,-1.1994,-1.2025,-1.2044,-1.2066,-1.2098,-1.2141,-1.2128,-1.2146,-1.2145,-1.2171,-1.2225,-1.2153,-1.2153,-1.2167,-1.2291,-1.2303,-1.2314,-1.2218,-1.222,-1.2221,-1.2289,0,-1.1915,-1.1981,-1.1982,-1.2043,-1.2074,-1.2062,-1.2095,-1.2114,-1.2121,-1.2149,-1.2156,-1.2188,-1.2167,-1.2178,-1.2203,-1.2213,-1.225,-1.2208,-1.2249,-1.225,-1.2245,-1.2325,-1.2338,-1.2402,-1.2298,-1.23,-1.2301,0,-1.2,-1.2025,-1.209,-1.211,-1.2124,-1.2153,-1.2182,-1.2208,-1.2229,-1.2233,-1.2252,-1.2247,-1.2285,-1.2256,-1.2309,-1.2281,-1.2297,-1.2304,-1.2307,-1.2312,-1.228,-1.2334,-1.2422,-1.2432,-1.2314,-1.2313,-1.2312,0,-1.2054,-1.2104,-1.2149,-1.2161,-1.2186,-1.2208,-1.2219,-1.2238,-1.2257,-1.2282,-1.2294,-1.2323,-1.2339,-1.2362,-1.2365,-1.2343,-1.2418,-1.2389,-1.2423,-1.2423,-1.244,-1.2439,-1.2533,-1.2449,-1.2448,-1.2448,-1.2448,0,-1.2128,-1.2168,-1.2174,-1.2202,-1.2246,-1.2246,-1.229,-1.2299,-1.2317,-1.2346,-1.2337,-1.2365,-1.2366,-1.2395,-1.2397,-1.2441,-1.2448,-1.2452,-1.2453,-1.2454,-1.2454,-1.2466,-1.2462,-1.2451,-1.245,-1.245,-1.2449,0,-1.2196,-1.2202,-1.225,-1.227,-1.2276,-1.2308,-1.2325,-1.2351,-1.2357,-1.2395,-1.2403,-1.2413,-1.2446,-1.2451,-1.2489,-1.2491,-1.2544,-1.2539,-1.2537,-1.2537,-1.2571,-1.2568,-1.2677,-1.2692,-1.2596,-1.2597,-1.2598,0,-1.2243,-1.2274,-1.2297,-1.2316,-1.2329,-1.236,-1.2379,-1.2379,-1.24,-1.2426,-1.245,-1.2482,-1.2508,-1.2561,-1.2572,-1.2601,-1.2598,-1.2634,-1.2602,-1.2603,-1.26,-1.2598,-1.2602,-1.264,-1.2641,-1.2642,-1.2643,0,-1.2327,-1.2328,-1.2356,-1.2385,-1.2408,-1.2431,-1.2453,-1.2469,-1.2472,-1.2495,-1.2529,-1.2549,-1.2589,-1.2621,-1.265,-1.2662,-1.2654,-1.2653,-1.2662,-1.2665,-1.2663,-1.2665,-1.2555,-1.265,-1.265,-1.2649,-1.2649,-1.2648,-1.2387,-1.2414,-1.2435,-1.2466,-1.2482,-1.2503,-1.2529,-1.2538,-1.2566,-1.2599,-1.2597,-1.2634,-1.2655,-1.2693,-1.2707,-1.2736,-1.2724,-1.2738,-1.2741,-1.2745,-1.2749,-1.2657,-1.2741,-1.2741,-1.274,-1.274,-1.274,0,-1.2472,-1.2484,-1.2513,-1.2543,-1.2568,-1.2557,-1.2581,-1.2602,-1.2635,-1.2655,-1.2681,-1.272,-1.2751,-1.2763,-1.2794,-1.2815,-1.2812,-1.2823,-1.2822,-1.2825,-1.2757,-1.2746,-1.2825,-1.2825,-1.2825,-1.2825,-1.2825,-1.2825,-1.2518,-1.2564,-1.2567,-1.262,-1.2632,-1.2669,-1.2683,-1.2702,-1.2718,-1.2762,-1.2788,-1.2795,-1.2812,-1.2844,-1.2872,-1.2875,-1.2887,-1.2901,-1.2902,-1.2838,-1.283,-1.2822,-1.2812,-1.2903,-1.2903,-1.2968,-1.2968,-1.2969]}]]